Location: Bishop�s Knoyle
(51.0728°N, 2.1714°W)
Time: 08:29:46
(UTC+00:00)

BEESAT 2 - Pass Details

Date: 02 December 2021
Orbit: 498 x 513 km, 64.9° (Epoch: 20 January)

Event Time Altitude Azimuth Distance (km) Brightness Sun altitude
Exits shadow 06:28:13 15° 323° (NW) 1,467 ? -12.4°
Maximum altitude 06:31:25 72° 47° (NE) 548 ? -11.9°
Drops below altitude 10° 06:35:18 10° 132° (SE) 1,739 ? -11.4°
Sets 06:37:28 0° 135° (SE) 2,619 ? -11.1°
